"Time","Temp","Dewpoint","Humidity","Pressure","Direction","Speed","Gust","Precip","PrecipRate"
"00:04:56","70.4","68.6","94","29.69","350","0.6","2.3","0.00","0.00"
"00:09:58","70.2","68.6","94.7","29.69","350","0.2","2.3","0.00","0.00"
"00:14:55","70.1","68.6","95","29.69","350","0","0","0.00","0.00"
"00:19:57","70","68.5","95","29.69","350","0","0","0.00","0.00"
"00:24:59","69.9","68.4","95","29.69","350","0","0","0.00","0.00"
"00:29:57","69.9","68.4","95","29.69","350","0","0","0.00","0.00"
"00:34:56","69.8","68.3","95","29.69","350","0","0","0.00","0.00"
"00:39:57","69.7","68.2","95","29.69","350","0","0","0.00","0.00"
"00:44:56","69.6","68.1","95","29.69","350","0","0","0.00","0.00"
"00:49:58","69.5","68","95","29.68","350","0","0","0.00","0.00"
"00:54:57","69.4","67.9","95","29.68","350","0","0","0.00","0.00"
"00:59:58","69.3","67.9","95.2","29.68","350","0.9","2.3","0.00","0.00"
"01:04:56","69.3","68.1","96","29.68","350","0.2","1.2","0.00","0.00"
"01:09:58","69.2","68","96","29.68","350","0","0","0.00","0.00"
"01:14:58","69.1","67.9","96","29.68","350","0","0","0.00","0.00"
"01:19:59","69.1","67.9","96","29.68","350","0.1","2","0.00","0.00"
"01:24:57","69.1","67.9","96","29.68","350","0.2","2.3","0.00","0.00"
"01:29:58","69.1","67.9","96","29.68","350","0","0","0.00","0.00"
"01:34:59","69","67.8","96","29.68","350","0","0","0.00","0.00"
"01:39:56","68.8","67.6","96","29.68","350","0","0","0.00","0.00"
"01:44:55","68.7","67.5","96","29.68","350","0","0","0.00","0.00"
"01:49:58","68.6","67.4","96","29.67","350","0","0","0.00","0.00"
"01:54:59","68.6","67.4","96","29.67","350","0","0","0.00","0.00"
"01:59:57","68.6","67.6","96.7","29.68","350","0","0","0.00","0.00"
"02:04:56","68.7","67.8","96.8","29.68","350","0.4","3","0.00","0.00"
"02:09:58","68.8","67.9","97","29.68","350","1.4","3.5","0.00","0.00"
"02:14:59","68.8","67.9","97","29.68","350","0.2","2.3","0.00","0.00"
"02:19:57","68.8","67.8","96.7","29.68","350","0.1","1.2","0.00","0.00"
"02:24:59","68.7","67.5","96","29.68","350","0","0","0.00","0.00"
"02:29:58","68.6","67.7","96.9","29.69","350","0.1","1.2","0.00","0.00"
"02:34:59","68.6","67.7","97","29.69","350","0.6","2.3","0.00","0.00"
"02:39:56","68.5","67.6","97","29.69","350","0.2","2.3","0.00","0.00"
"02:44:58","68.6","67.7","97","29.69","65","0.6","3.5","0.00","0.00"
"02:49:59","68.7","67.8","97","29.67","126","0.4","2.3","0.00","0.00"
"02:54:56","68.7","67.8","97","29.67","126","1","2.3","0.00","0.00"
"02:59:56","68.7","67.8","97","29.67","126","0","1.2","0.00","0.00"
"03:04:56","68.7","67.8","97","29.67","126","0","0","0.00","0.00"
"03:09:57","68.7","67.6","96.2","29.67","126","0","0","0.00","0.00"
"03:14:59","68.6","67.5","96.3","29.68","126","0.2","1.2","0.00","0.00"
"03:19:57","68.6","67.6","96.8","29.68","126","0","0","0.00","0.00"
"03:24:59","68.5","67.6","97","29.68","126","0","0","0.00","0.00"
"03:29:57","68.4","67.5","96.8","29.68","126","0","0","0.00","0.00"
"03:34:56","68.4","67.4","96.7","29.68","126","0","0","0.00","0.00"
"03:39:59","68.3","67.3","96.5","29.68","126","0","0","0.00","0.00"
"03:44:59","68.3","67.3","96.9","29.68","126","0","0","0.00","0.00"
"03:49:57","68.2","67","96.2","29.68","126","0","0","0.00","0.00"
"03:54:55","68.1","67.1","96.7","29.68","126","0","0","0.00","0.00"
"03:59:57","68","67.1","97","29.68","126","0","0","0.00","0.00"
"04:04:59","68","67.1","97","29.67","126","0","0","0.00","0.00"
"04:09:57","67.9","67","97","29.67","126","0","0","0.00","0.00"
"04:14:57","67.9","67","97","29.68","126","0","0","0.00","0.00"
"04:19:56","67.9","67","97","29.68","126","0.6","2.3","0.00","0.00"
"04:24:57","67.9","67","97","29.68","126","0.2","2.3","0.00","0.00"
"04:29:56","68","67.1","97","29.68","126","0","1.2","0.00","0.00"
"04:34:57","68","67.1","97","29.68","126","0","0","0.00","0.00"
"04:39:56","68","67.1","97","29.68","126","0","0","0.00","0.00"
"04:44:57","68","67.1","97","29.68","126","0.1","2.3","0.00","0.00"
"04:49:59","68","67.1","97","29.68","126","0.3","2.3","0.00","0.00"
"04:54:59","68","67.1","97","29.68","126","0","1","0.00","0.00"
"04:59:59","68.1","67.2","97","29.68","126","0.1","2","0.00","0.00"
"05:04:53","68.2","67.3","97","29.67","126","0.1","2.3","0.00","0.00"
"05:09:59","68.2","67.3","97","29.67","126","0","0","0.00","0.00"
"05:14:57","68.3","67.4","97","29.69","126","0","0","0.00","0.00"
"05:19:58","68.3","67.4","97","29.69","126","0","2","0.00","0.00"
"05:24:57","68.4","67.5","97","29.69","126","0.4","2.3","0.00","0.00"
"05:29:59","68.4","67.6","97.3","29.69","126","0","0","0.00","0.00"
"05:34:59","68.4","67.5","97.1","29.69","126","0","0","0.00","0.00"
"05:39:59","68.4","67.5","97","29.69","126","0","0","0.00","0.00"
"05:44:59","68.4","67.5","97","29.69","126","0","0","0.00","0.00"
"05:49:56","68.4","67.6","97.3","29.69","126","0","0","0.00","0.00"
"05:54:56","68.5","67.9","98","29.69","126","0","0","0.00","0.00"
"05:59:57","68.5","67.9","98","29.69","126","0","0","0.00","0.00"
"06:04:59","68.6","68","98","29.69","126","0","0","0.00","0.00"
"06:09:58","68.7","68.1","98","29.69","327","1.2","5","0.00","0.00"
"06:14:56","68.8","68.1","97.6","29.72","322","2.3","4.6","0.00","0.00"
"06:19:56","68.8","67.9","97","29.72","317","1.5","3.5","0.00","0.00"
"06:24:55","68.8","67.9","97","29.72","292","1.1","4","0.00","0.00"
"06:29:56","68.9","68","97","29.74","297","1.1","4","0.00","0.00"
"06:34:59","68.8","67.9","97","29.74","351","1.4","3.5","0.00","0.00"
"06:39:58","68.8","67.7","96.4","29.74","259","0.9","5","0.00","0.00"
"06:44:58","68.8","67.6","96","29.74","247","1.3","7","0.00","0.00"
"06:49:57","68.8","67.5","95.6","29.74","333","2.3","7","0.00","0.00"
"06:54:57","68.8","67.3","95","29.74","328","1.9","4","0.00","0.00"
"06:59:57","68.7","67.1","94.6","29.75","331","1.9","5","0.00","0.00"
"07:04:59","68.6","66.8","94","29.75","338","1.8","4","0.00","0.00"
"07:09:56","68.4","66.4","93.3","29.75","345","2","7","0.00","0.00"
"07:14:59","68.3","66.2","93","29.76","335","2.2","7","0.00","0.00"
"07:19:59","68.2","66.1","93","29.76","328","2.4","7","0.00","0.00"
"07:24:59","68.1","66","93","29.76","318","1.9","7","0.00","0.00"
"07:29:59","68.1","65.9","92.9","29.76","330","2.6","7","0.00","0.00"
"07:34:59","68","65.8","92.7","29.76","324","2.2","7","0.00","0.00"
"07:39:56","68","65.6","92.1","29.76","338","2","7","0.00","0.00"
"07:44:58","68","65.6","92","29.77","313","2","6","0.00","0.00"
"07:49:59","67.9","65.5","92","29.77","321","1.6","5","0.00","0.00"
"07:54:59","67.9","65.4","91.7","29.77","332","1.9","5","0.00","0.00"
"07:59:58","67.8","65.5","92.2","29.77","0","0.9","3.5","0.00","0.00"
"08:04:56","67.8","65.3","91.6","29.77","124","1.6","5","0.00","0.00"
"08:09:58","67.7","65.2","91.7","29.77","309","0.6","3.5","0.00","0.00"
"08:14:57","67.7","65","91","29.78","334","1","4","0.00","0.00"
"08:19:59","67.6","64.9","91","29.78","346","2.1","6","0.00","0.00"
"08:20:40","67.6","64.9","91","29.78","352","1.9","4.6","0.00","0.00"
"08:44:56","67.7","64.7","90","29.78","348","3.4","6.9","0.00","0.00"
"08:49:57","67.8","64.5","89.4","29.78","347","1.7","5","0.00","0.00"
"08:54:59","67.9","64.4","88.8","29.78","330","2.2","6","0.00","0.00"
"08:59:59","68","64.5","88.6","29.79","346","2.1","6","0.00","0.00"
"09:04:57","68.1","64.5","88.2","29.79","314","2.3","9.2","0.00","0.00"
"09:09:58","68.2","64.5","87.9","29.79","326","1.6","6","0.00","0.00"
"09:14:59","68.3","64.5","87.6","29.79","26","1.5","5","0.00","0.00"
"09:19:56","68.4","64.4","87","29.79","344","1.9","6","0.00","0.00"
"09:24:56","68.3","64.3","86.9","29.79","319","2.3","5","0.00","0.00"
"09:29:57","68.2","64.2","87","29.80","332","1.5","5","0.00","0.00"
"09:34:57","68.2","64.3","87.3","29.80","330","0.4","3","0.00","0.00"
"09:39:56","68.2","64.3","87.5","29.80","347","1.3","6","0.00","0.00"
"09:44:57","68.1","64.1","87.1","29.80","358","1","5","0.00","0.00"
"09:49:58","68","64","87","29.80","342","1.7","5","0.00","0.00"
"09:54:58","68","64","87","29.80","334","2.1","9.2","0.00","0.00"
"09:59:59","67.9","63.9","87","29.80","340","2.1","7","0.00","0.00"
"10:04:57","67.8","63.8","87","29.80","347","2.4","8.1","0.00","0.00"
"10:09:59","67.8","63.9","87.3","29.80","338","2.1","6","0.00","0.00"
"10:14:58","67.9","64","87.6","29.81","349","0.7","4.6","0.00","0.00"
"10:19:59","67.9","64","87.3","29.81","343","2.3","6","0.00","0.00"
"10:24:59","67.9","63.9","87","29.81","338","2","4.6","0.00","0.00"
"10:29:59","67.9","63.7","86.5","29.81","346","2","9","0.00","0.00"
"10:34:59","67.8","63.4","85.6","29.81","341","3.7","11.5","0.00","0.00"
"10:39:58","67.7","63.2","85.5","29.81","329","2.9","10.4","0.01","0.01"
"10:44:59","67.6","63.3","85.9","29.82","345","3.4","10.4","0.01","0.01"
"10:49:59","67.4","63.2","86.1","29.82","337","3.7","9.2","0.01","0.01"
"10:54:59","67.2","63.2","87","29.82","341","3.1","9.2","0.01","0.01"
"10:59:59","67","63.2","87.6","29.82","337","3.3","9","0.01","0.01"
"11:04:57","66.7","63.3","88.7","29.82","312","2.7","9.2","0.01","0.01"
"11:09:56","66.4","63.4","89.8","29.82","293","1.7","6.9","0.01","0.01"
"11:14:59","66.1","63.3","90.7","29.84","310","1.8","6","0.03","0.02"
"11:19:56","65.6","62.9","91","29.84","298","2.8","6","0.05","0.05"
"11:24:56","65.2","62.7","91.7","29.84","318","3","11","0.08","0.07"
"11:29:56","64.7","62.4","92.3","29.84","3","2","9.2","0.12","0.11"
"11:34:57","64.3","62.2","92.8","29.84","307","2","5","0.18","0.17"
"11:39:56","64","62.1","93.7","29.84","331","1.7","5","0.25","0.23"
"11:44:57","63.8","62","94","29.84","324","1.5","4","0.28","0.26"
"11:49:57","63.7","62.1","94.6","29.84","312","1.4","4","0.30","0.29"
"11:54:58","63.7","62.3","95.2","29.84","348","1.2","4","0.31","0.30"
"11:59:58","63.9","62.7","96","29.84","302","0.9","4","0.32","0.31"
"12:04:56","64.1","62.9","96","29.83","258","1.2","3.5","0.33","0.32"
"12:09:58","64.2","62.9","95.8","29.83","307","1.3","3.5","0.34","0.33"
"12:14:59","64.3","63","95.8","29.83","322","1.6","6","0.34","0.33"
"12:19:59","64.4","63.2","95.9","29.83","334","1.6","4","0.35","0.31"
"12:24:58","64.7","63.5","96","29.83","329","1.9","8","0.35","0.30"
"12:29:57","64.9","63.7","96","29.84","317","2.9","7","0.35","0.27"
"12:34:57","64.9","63.5","95.4","29.84","318","2.9","7","0.36","0.23"
"12:39:59","65","63.8","96","29.84","334","2.1","4.6","0.36","0.18"
"12:44:59","65.3","64.1","96","29.84","347","1.7","6","0.36","0.11"
"12:49:58","65.5","64","95.1","29.83","343","3","6","0.36","0.08"
"12:54:58","65.4","63.7","94.4","29.83","332","2.7","10.4","0.36","0.06"
"12:59:57","65.4","63.8","94.7","29.83","335","3.8","9.2","0.36","0.05"
"13:04:56","65.4","63.6","94","29.81","331","2.3","9.2","0.36","0.04"
"13:09:58","65.3","63.5","94","29.81","337","2.3","9.2","0.36","0.03"
"13:14:58","65.2","63.4","94","29.85","328","1.9","5","0.36","0.02"
"13:19:58","65.1","63.3","94","29.85","310","2.1","5","0.36","0.02"
"13:24:58","64.9","63.1","93.8","29.85","340","2","9","0.36","0.01"
"13:29:59","65","63.3","94.5","29.85","350","1","4","0.36","0.01"
"13:34:57","65.2","63.7","95.1","29.83","345","1.2","5","0.36","0.01"
"13:39:59","65.5","64","95.1","29.83","314","1.4","4","0.36","0.00"
"13:44:59","65.4","63.7","94.4","29.84","328","1.3","5","0.36","0.00"
"13:49:59","65.4","63.6","94","29.84","310","1.7","7","0.36","0.00"
"13:54:56","65.4","63.5","93.8","29.84","19","1.7","6.9","0.36","0.00"
"13:59:56","65.4","63.4","93.3","29.84","356","1.7","7","0.36","0.00"
"14:04:58","65.3","63.2","93","29.82","341","1.7","4","0.36","0.00"
"14:09:59","65.3","63.3","93.5","29.82","327","1.2","3.5","0.36","0.00"
"14:14:59","65.2","63","92.4","29.84","333","1.3","5","0.36","0.00"
"14:19:59","65.1","63","92.9","29.84","326","0.6","4.6","0.36","0.00"
"14:24:56","65.1","62.9","92.5","29.84","305","0.7","3","0.36","0.00"
"14:29:56","65.1","62.9","92.7","29.84","335","1.4","4","0.36","0.00"
"14:34:56","65","62.6","92","29.83","357","1","4","0.36","0.00"
"14:39:59","64.9","62.4","91.7","29.83","20","1.5","4","0.36","0.00"
"14:44:59","64.8","62.3","91.4","29.83","328","1.8","7","0.36","0.00"
"14:49:55","64.8","62.2","91.3","29.83","39","1.3","4","0.36","0.00"
"14:54:59","64.8","62.1","91.1","29.83","317","1.8","4","0.36","0.00"
"14:59:59","64.9","62.4","91.8","29.85","328","1.6","6","0.36","0.00"
"15:04:57","64.9","62","90.1","29.85","338","2.9","12","0.36","0.00"
"15:09:58","64.9","61.4","88.4","29.85","349","3.5","11.5","0.36","0.00"
"15:14:58","65","61","87","29.85","338","2.7","10.4","0.36","0.00"
"15:19:57","65.2","61","86.4","29.84","322","2.6","11","0.36","0.00"
"15:24:58","65.4","61.1","86.2","29.84","330","2.4","7","0.36","0.00"
"15:29:58","65.6","61.2","85.4","29.84","346","2.1","6.9","0.36","0.00"
"15:34:58","66","61.3","85","29.84","344","1.4","4","0.36","0.00"
"15:39:58","66.3","61.7","84.9","29.84","344","3","9.2","0.36","0.00"
"15:44:58","66.6","61.5","83.8","29.85","348","2.4","6","0.36","0.00"
"15:49:58","66.8","61.5","83.3","29.85","343","3.3","9.2","0.36","0.00"
"15:54:59","66.8","61.2","82.2","29.85","339","4.6","13","0.36","0.00"
"15:59:59","66.8","61.4","82.8","29.85","13","1.5","9.2","0.36","0.00"
"16:04:57","67.1","61.8","83.2","29.85","349","3.3","9","0.36","0.00"
"16:09:59","67.3","61.4","81.2","29.85","330","3.6","7","0.36","0.00"
"16:14:58","67.4","61.4","81","29.85","335","3","9","0.36","0.00"
"16:19:58","67.7","61.8","81.4","29.85","335","1.4","5","0.36","0.00"
"16:24:57","67.8","61.3","79.8","29.85","330","3.3","10","0.36","0.00"
"16:29:57","67.9","61.8","80.7","29.86","344","2.3","6.9","0.36","0.00"
"16:34:58","68.2","62.2","81.2","29.86","300","2","5","0.36","0.00"
"16:39:56","68.3","61.3","78.3","29.86","109","2.6","10","0.36","0.00"
"16:44:56","68.1","60.4","76.5","29.86","347","3.4","10.4","0.36","0.00"
"16:49:56","68","60.1","75.9","29.86","329","2.5","7","0.36","0.00"
"16:54:56","67.9","59.8","75.2","29.86","334","2.9","7","0.36","0.00"
"16:59:55","67.9","60.1","75.9","29.86","319","2.4","6","0.36","0.00"
"17:04:57","67.9","59.6","74.9","29.86","336","4.2","12","0.36","0.00"
"17:09:59","67.9","59.6","74.8","29.86","319","3","9.2","0.36","0.00"
"17:14:57","68","59.9","75.4","29.87","316","1.7","9","0.36","0.00"
"17:19:56","68","59.2","73.5","29.87","335","3.8","11.5","0.36","0.00"
"17:24:57","68","59.3","73.7","29.87","343","3.6","9.2","0.36","0.00"
"17:29:59","68.2","59.4","73.5","29.87","336","3.4","9.2","0.36","0.00"
"17:34:58","68.7","59.8","73.2","29.87","340","2.6","6.9","0.36","0.00"
"17:39:59","69.3","60.5","73.6","29.87","331","1.8","8","0.36","0.00"
"17:44:58","69.7","60.1","71.6","29.87","342","3.4","9","0.36","0.00"
"17:49:56","69.8","59.5","69.6","29.86","335","4","11.5","0.36","0.00"
"17:54:58","69.9","59.9","70.3","29.86","317","1.3","4.6","0.36","0.00"
"17:59:58","70","60","70.4","29.87","7","1.9","7","0.36","0.00"
"18:04:59","69.8","59","68.5","29.87","350","4","11.5","0.36","0.00"
"18:09:57","69.3","58.7","68.9","29.87","344","2.7","9.2","0.36","0.00"
"18:14:59","69.3","59.5","71.1","29.88","348","1.4","9","0.36","0.00"
"18:19:58","69.6","59.2","69.5","29.88","342","4","12","0.36","0.00"
"18:24:57","69.8","58.9","68.4","29.88","337","3.3","13","0.36","0.00"
"18:29:56","69.8","59.2","69","29.88","309","1.7","5","0.36","0.00"
"18:34:58","69.9","59.7","70","29.88","333","1.9","5","0.36","0.00"
"18:39:56","69.9","59.2","68.8","29.88","335","2.4","6","0.36","0.00"
"18:44:59","69.8","59.4","69.3","29.89","334","2.2","6","0.36","0.00"
"18:49:58","69.7","58.3","67.1","29.89","332","2.7","11.5","0.36","0.00"
"18:54:56","69.5","56.4","63.2","29.89","2","2","11.5","0.36","0.00"
"18:59:56","69.4","56","62.4","29.90","304","3.3","12","0.36","0.00"
"19:04:57","69.4","55.2","60.6","29.90","335","3.5","10.4","0.36","0.00"
"19:09:58","69.5","55","60","29.90","330","2.8","6","0.36","0.00"
"19:14:58","69.5","55.4","61","29.90","301","0.9","4","0.36","0.00"
"19:19:57","69.5","55.3","60.6","29.90","330","1","4","0.36","0.00"
"19:24:56","69.4","55.3","60.8","29.90","348","1.5","5","0.36","0.00"
"19:29:59","69.3","55.2","60.8","29.91","342","1.8","4","0.36","0.00"
"19:34:58","69.1","55.4","61.7","29.91","343","0.9","4","0.36","0.00"
"19:39:56","68.9","55.8","63.1","29.91","344","0.8","3.5","0.36","0.00"
"19:44:59","68.6","56.4","65","29.92","344","0.2","2","0.36","0.00"
"19:49:59","68.2","56.4","66","29.92","344","0.4","2.3","0.36","0.00"
"19:54:57","67.9","55.7","64.8","29.92","344","0.2","2.3","0.36","0.00"
"19:59:57","67.7","55.8","65.7","29.93","344","0.2","1.2","0.36","0.00"
"20:04:59","67.6","56.2","67","29.93","344","0","1.2","0.36","0.00"
"20:09:56","67.3","56.4","67.9","29.93","344","0.1","1.2","0.36","0.00"
"20:14:56","67.1","56.1","67.7","29.94","344","0.1","2","0.36","0.00"
"20:19:56","66.9","55.8","67.3","29.94","344","0.3","2.3","0.36","0.00"
"20:24:56","66.8","55.8","67.8","29.94","344","0.1","1.2","0.36","0.00"
"20:29:56","66.5","56.3","69.7","29.94","344","0.3","2.3","0.36","0.00"
"20:34:59","66","56.9","72.5","29.94","344","0.3","2.3","0.36","0.00"
"20:39:58","65.4","56.7","73.5","29.94","344","0","0","0.36","0.00"
"20:44:58","64.9","56.7","74.7","29.96","344","0","0","0.36","0.00"
"20:49:59","64.4","56.9","76.7","29.96","344","0","0","0.36","0.00"
"20:54:59","63.9","56.9","78","29.96","94","0","1.2","0.36","0.00"
"20:59:59","63.4","57","79.6","29.97","94","0","1.2","0.36","0.00"
"21:04:58","63","57.4","81.9","29.97","94","0","0","0.36","0.00"
"21:09:56","62.6","57.6","83.5","29.97","94","0","0","0.36","0.00"
"21:14:59","62.3","57.8","85.2","29.98","94","0","1","0.36","0.00"
"21:19:59","61.9","58","86.9","29.98","94","0.1","1.2","0.36","0.00"
"21:24:58","61.6","58.1","88.4","29.98","94","0","1","0.36","0.00"
"21:29:59","61.2","57.9","88.9","29.99","94","0","0","0.36","0.00"
"21:34:58","60.8","57.6","89.1","29.99","94","0","0","0.36","0.00"
"21:39:57","60.4","57.5","90","29.99","94","0","0","0.36","0.00"
"21:44:58","60.1","57.3","90.6","30.01","94","0","0","0.36","0.00"
"21:49:58","59.8","57.2","91","30.01","93","0","0","0.36","0.00"
"21:54:59","59.5","56.9","91","30.01","94","0","0","0.36","0.00"
"21:59:59","59.2","56.8","91.5","30.01","94","0","0","0.36","0.00"
"22:04:57","59","56.7","92","30.01","94","0","0","0.36","0.00"
"22:09:59","58.7","56.4","92","30.01","93","0","0","0.36","0.00"
"22:14:57","58.5","56.2","92","30.02","93","0","0","0.36","0.00"
"22:19:56","58.3","56","92","30.02","94","0","0","0.36","0.00"
"22:24:56","58","55.7","92","30.02","93","0","0","0.36","0.00"
"22:29:56","57.8","55.7","92.8","30.03","93","0","0","0.36","0.00"
"22:34:56","57.6","55.5","92.9","30.03","94","0","0","0.36","0.00"
"22:39:58","57.4","55.4","93","30.03","93","0","0","0.36","0.00"
"22:44:58","57.3","55.3","93","30.04","93","0","0","0.36","0.00"
"22:49:57","57.2","55.3","93.5","30.04","93","0","0","0.36","0.00"
"22:54:56","57.2","55.4","93.7","30.04","93","0","0","0.36","0.00"
"22:59:56","57.1","55.4","94","30.04","93","0","0","0.36","0.00"
"23:04:58","56.9","55.1","93.5","30.04","93","0","0","0.36","0.00"
"23:09:56","56.6","54.8","93.6","30.04","93","0","0","0.36","0.00"
"23:14:58","56.5","54.8","94","30.05","93","0","0","0.36","0.00"
"23:19:57","56.4","54.8","94.5","30.05","93","0","0","0.36","0.00"
"23:24:56","56.3","54.9","95","30.05","93","0","0","0.36","0.00"
"23:29:56","56.5","55.2","95.3","30.06","93","0","0","0.36","0.00"
"23:34:59","56.6","55.3","95.3","30.06","93","0","0","0.36","0.00"
"23:39:57","56.6","55.2","95","30.06","93","0","0","0.36","0.00"
"23:44:57","56.5","55.1","95","30.06","93","0","0","0.36","0.00"
"23:49:56","56.3","54.9","94.9","30.06","93","0","0","0.36","0.00"
"23:54:56","56.1","54.4","94.2","30.06","93","0","0","0.36","0.00"
"23:59:59","55.8","54.1","94","30.06","93","0","0","0.36","0.00"
